Date,TemperatureHighF,TemperatureAvgF,TemperatureLowF,DewpointHighF,DewpointAvgF,DewpointLowF,HumidityHigh,HumidityAvg,HumidityLow,PressureMaxIn,PressureMinIn,WindSpeedMaxMPH,WindSpeedAvgMPH,GustSpeedMaxMPH,PrecipitationSumIn
2013-3-1,31.0,27.9,24.7,-99.9,-99.9,-99.9,0,0,100,0.00,40.00,12,1,12,2.19
2013-3-2,31.7,25.6,-51.2,-99.9,-99.9,-99.9,0,0,100,0.00,40.00,13,1,13,2.57
2013-3-3,43.0,25.4,20.5,-99.9,-99.9,-99.9,0,0,100,0.00,40.00,191,1,239,0.58
2013-3-4,59.5,28.5,15.1,-99.9,-99.9,-99.9,0,0,100,0.00,40.00,10,1,10,0.12
2013-3-5,50.1,30.5,13.5,-99.9,-99.9,-99.9,0,0,100,0.00,40.00,9,1,10,0.00
2013-3-6,57.6,37.8,31.5,-99.9,-99.9,-99.9,0,0,100,0.00,40.00,12,1,12,1.24
2013-3-7,49.4,34.3,29.5,-99.9,-99.9,-99.9,0,0,100,0.00,40.00,12,1,14,0.00
2013-3-8,46.1,33.9,28.0,-99.9,-99.9,-99.9,0,0,100,0.00,40.00,12,1,14,0.01
2013-3-9,61.6,39.5,21.5,-99.9,-99.9,-99.9,0,0,100,0.00,40.00,10,0,10,0.02
2013-3-10,67.7,49.2,43.7,-99.9,-99.9,-99.9,0,0,100,0.00,40.00,13,2,14,0.01
2013-3-11,59.2,53.3,43.8,-99.9,-99.9,-99.9,0,0,100,0.00,40.00,20,3,20,0.65
2013-3-12,44.3,36.9,32.5,-99.9,-99.9,-99.9,0,0,100,0.00,40.00,17,5,19,0.00
2013-3-13,41.1,30.5,26.0,-99.9,-99.9,-99.9,0,0,100,0.00,40.00,22,4,22,0.03
2013-3-14,46.3,30.5,23.7,-99.9,-99.9,-99.9,0,0,100,0.00,40.00,16,2,16,0.01
2013-3-15,46.7,34.4,24.9,-99.9,-99.9,-99.9,0,0,100,0.00,40.00,19,4,19,0.03
2013-3-16,45.2,32.6,26.2,-99.9,-99.9,-99.9,0,0,100,0.00,40.00,11,0,12,0.17
2013-3-17,55.6,32.3,23.1,-99.9,-99.9,-99.9,0,0,100,0.00,40.00,11,0,11,0.10
2013-3-18,36.3,31.0,23.7,-99.9,-99.9,-99.9,0,0,100,0.00,40.00,22,3,24,0.51
2013-3-19,37.4,31.6,27.5,-99.9,-99.9,-99.9,0,0,100,0.00,40.00,25,8,29,0.03
2013-3-20,44.8,29.5,22.1,-99.9,-99.9,-99.9,0,0,100,0.00,40.00,18,4,19,0.01
2013-3-21,43.3,24.4,16.0,-99.9,-99.9,-99.9,0,0,100,0.00,40.00,17,4,18,0.01
2013-3-22,43.3,28.4,16.3,-99.9,-99.9,-99.9,0,0,100,0.00,40.00,14,1,16,0.08
2013-3-23,61.1,31.4,13.7,-99.9,-99.9,-99.9,0,0,100,0.00,40.00,12,0,12,0.02
2013-3-24,41.0,30.6,0.8,-99.9,-99.9,-99.9,0,0,100,0.00,40.00,13,1,13,0.01
2013-3-25,43.7,33.9,30.0,-99.9,-99.9,-99.9,0,0,100,0.00,40.00,15,0,16,0.14
2013-3-26,47.8,35.7,30.3,-99.9,-99.9,-99.9,0,0,100,0.00,40.00,15,1,15,0.02
2013-3-27,48.6,37.3,31.5,-99.9,-99.9,-99.9,0,0,100,0.00,40.00,14,2,14,0.04
2013-3-28,50.4,38.2,0.2,-99.9,-99.9,-99.9,0,0,100,0.00,40.00,12,1,14,0.07
2013-3-29,46.3,36.5,34.3,-99.9,-99.9,-99.9,0,0,100,0.00,40.00,8,0,8,0.00